Voltar ao catálogo

STARLINK-36063

AtivoComunicaçõesVLEO
NORAD 66606·PAYLOAD·🇺🇸 United States

Lançado Nov 22, 2025 de Cape Canaveral Space Force Station

Loading…

Próximas Passagens (próximas 24 horas)

TLE

AtualizadoSource: CelesTrak SupGP

Época: Sep 15, 2026, 02:39 UTC

1 66606C 25270U   26258.11090278 -.00015500  00000+0 -56137-3 0  2586
2 66606  43.0005  66.2435 0001436 272.3183 224.5304 15.27587138    12

Acompanhe STARLINK-36063 em tempo real com AllMySat

Download on the App Store